Regional Weather Roundup
Issued by NWS Green Bay, WI

Home | Current Version | Previous Version | Text Only | Print | Product List | Glossary On
Versions: 1 2 3 4 5 6 7 8 9 10 11 12 13 14 15 16 17 18 19 20 21 22 23 24 25 26 27 28 29 30 31 32 33 34 35 36 37 38 39 40 41 42 43 44 45 46 47 48 49 50
000
ASUS43 KGRB 210310
RWRGRB

NORTH-CENTRAL AND NORTHEAST WISCONSIN REGIONAL WEATHER ROUNDUP
NATIONAL WEATHER SERVICE GREEN BAY WI
900 PM CST SAT DEC 20 2014

WIZ005-009-010>012-018-019-210400-
NORTH CENTRAL WISCONSIN

CITY           SKY/WX    TMP DP  RH WIND       PRES   REMARKS
IRONWOOD       CLOUDY    28  27  93 S6        30.09R
MANITOWISH WTR CLOUDY    27  26  97 S7        30.11S
ARBOR VITAE    CLOUDY    29  27  90 S6        30.12S
EAGLE RIVER    CLOUDY    27  27  98 S3        30.13R FOG
LAND O LAKES   CLOUDY    28  27  96 S5        30.12S
RHINELANDER    CLOUDY    27  24  89 SE6       30.14S
PHILLIPS       CLOUDY    28  26  93 S9        30.12S
ANTIGO         CLOUDY    25  24  94 S7        30.16F FOG
TOMAHAWK       CLOUDY    27  25  90 CALM      30.15S FOG
MERRILL        CLOUDY    28  26  89 S6        30.15F
$$

WIZ013-073-210400-
NORTHEAST WISCONSIN

CITY           SKY/WX    TMP DP  RH WIND       PRES   REMARKS
IRON MOUNTAIN  CLOUDY    27  23  85 SE6       30.16F
MARINETTE      CLOUDY    28  21  74 W3        30.23S
OCONTO         CLOUDY    28  26  95 CALM      30.23S
$$

WIZ017-030-035>037-045-210400-
CENTRAL WISCONSIN

CITY           SKY/WX    TMP DP  RH WIND       PRES   REMARKS
MEDFORD        CLOUDY    28  26  93 S7        30.14S FOG
WAUSAU         CLOUDY    29  24  82 SE8       30.16S
MOSINEE        CLOUDY    28  27  93 SE5       30.17F
MARSHFIELD     CLOUDY    29  25  85 S7        30.16S FOG
WISC RAPIDS    CLOUDY    29  24  82 S5        30.19F
STEVENS POINT  CLOUDY    27  25  89 SE3       30.18F
WAUPACA        CLOUDY    30  27  88 E3        30.21F FOG
SHAWANO        CLOUDY    30  25  81 CALM      30.22F
CLINTONVILLE   CLOUDY    28  27  93 S5        30.22S FOG
$$

WIZ038-039-048-051-210400-
FOX VALLEY

CITY           SKY/WX    TMP DP  RH WIND       PRES   REMARKS
NWS GREEN BAY  CLOUDY    29  27  92 CALM      30.23S FOG
APPLETON       CLOUDY    27  27 100 VRB3      30.22F FOG
OSHKOSH        CLOUDY    27  24  89 CALM      30.22S FOG
FOND DU LAC    CLOUDY    30  25  81 S6        30.22S
$$

WIZ022-050-052-210400-
EAST CENTRAL WISCONSIN

CITY           SKY/WX    TMP DP  RH WIND       PRES   REMARKS
STURGEON BAY   CLOUDY    27  23  86 CALM      30.24S
MANITOWOC      CLOUDY    30  27  88 W3        30.23S
SHEBOYGAN      CLOUDY    28  25  88 CALM      30.23S
$$

LMZ563-521-522-541>543-210400-
LAKESHORE

STATION/POSITION TIME  TEMP    WIND        PRES    VSBY  WAVE
                       AIR SEA DIR/SP/G                  HT/PER
                 (UTC) (F)     (DEG/KT/KT) (MB)    (MI)  (FT/S)
SHEBOYGAN LKSHOR 0300   31 34  240/  4/  4 1024.8F
KEWAUNEE LKSHORE 0300   25     290/  1/  3 1022.6F
ALGOMA MARINA    0200          320/  6/  7   N/A
NORTHPORT PIER   0300   29     170/  1/  2 1023.7S
SISTER BAY LKSHO 0200             CALM       N/A
CHAMBERS ISLAND  0300   27      CALM  /  2 1023.7F
MENOMINEE LKSHOR 0300   29     210/  3/  4 1024.2S
$$



USA.gov is the U.S. government's official web portal to all federal, state and local government web resources and services.